Regional Weather Roundup
Issued by NWS

Home | Current Version | Previous Version | Text Only | Print | Product List | Glossary Off
Versions: 1 2 3 4 5 6 7 8 9 10 11 12 13 14 15 16 17 18 19 20 21 22 23 24 25 26 27 28 29 30 31 32 33 34 35 36 37 38 39 40 41 42 43 44 45 46 47 48 49 50

000
ASUS43 KLOT 011606
RWRIL

ILLINOIS REGIONAL WEATHER ROUNDUP
NATIONAL WEATHER SERVICE CHICAGO/ROMEOVILLE IL
1000 AM CST SUN FEB 01 2015

NOTE: "FAIR" INDICATES FEW OR NO CLOUDS BELOW 12,000 FEET WITH NO
SIGNIFICANT WEATHER AND/OR OBSTRUCTIONS TO VISIBILITY.

* THESE STATIONS ARE NOT UNDER NWS QUALITY CONTROL. THEY ALSO MAY NOT
  REPORT WEATHER SUCH AS PRECIPITATION OR FOG.

ILZ001-002-007-009-015-016-024-011700-
NORTHWEST ILLINOIS

CITY           SKY/WX    TMP DP  RH WIND       PRES   REMARKS
MOLINE         LGT SNOW  31  28  89 NE18G29   29.80S VSB 3/4 WCI  19
STERLING*        N/A    N/A N/A N/A MISG        N/A
SAVANNA*       LGT SNOW  26  23  87 NE16G24   29.88R WCI  14
$$

ILZ003-004-008-010-011-017-018-011700-
NORTH CENTRAL ILLINOIS

CITY           SKY/WX    TMP DP  RH WIND       PRES   REMARKS
ROCKFORD       SNOW      25  21  85 NE26      29.91F VSB 1/2 WCI   9
FREEPORT*      LGT SNOW  23  21  91 NE23G29   29.91F VSB 1   WCI   8
ROCHELLE*      LGT SNOW  28  26  95 NE20G25   29.85F WCI  14
DE KALB*       LGT SNOW  27  25  93 NE20G29   29.86F VSB 3/4 WCI  14
PERU*          SNOW      33  33 100 E10       29.81F VSB 1/2 WCI  25
$$

ILZ005-006-012>014-019>023-011700-
NORTHEAST ILLINOIS

CITY           SKY/WX    TMP DP  RH WIND       PRES   REMARKS
CHICAGO-OHARE  HVY SNOW  29  27  92 NE18      29.90F VSB 1/4 WCI  16
CHICAGO-MIDWAY SNOW      33  31  92 NE17      29.88F VSB 1/2 WCI  22
AURORA         SNOW      31  27  85 NE23      29.86F VSB 1/4 WCI  18
LANSING*       SNOW      32  32 100 CALM      29.87F VSB 1/2
JOLIET*        LGT SNOW  32  32  99 NE3       29.85F
WAUKEGAN       SNOW      25  24  96 NE20G28   29.95F VSB<1/4 WCI  11
DUPAGE AIRPORT SNOW      30  27  88 NE21G26   29.87F VSB 1/2 WCI  17
KANKAKEE*      SNOW      32  32  99 E7        29.83F VSB 1/2 WCI  26
WHEELING       SNOW      29  26  89 NE14G25   29.94F VSB 1/4 WCI  18
MORRIS*        SNOW      32  32 100 E6        29.82F VSB 1/2 WCI  27
ROMEOVILLE*    LGT SNOW  32  32 100 NE9       29.86F VSB 3/4 WCI  24
NORTHERLY ISL    N/A     30  29  96 NE23        N/A  WCI  17
$$

LMZ740>746-011700-
SOUTHERN LAKE MICHIGAN

STATION/POSITION SKY/WX   TEMP    WIND        PRES    VSBY  WAVE
                          AIR SEA DIR/SP/G                  HT/PER
                          (F)     (DEG/KT/KT) (MB)    (MI)  (FT/S)
WAUKEGAN HARBOR            27      60/ 33/ 38   N/A
HARRISON CRIB              29      70/ 27/ 31   N/A
BURNHAM HARBOR             30      60/ 22       N/A
CALUMET HARBOR             31      50/ 17/ 22   N/A
MICHIGAN CITY              30      60/ 13/ 17   N/A
$$

ILZ025>027-034>036-040-047-049-050-058-095>099-011700-
WEST-CENTRAL ILLINOIS

CITY           SKY/WX    TMP DP  RH WIND       PRES   REMARKS
QUINCY         SNOW      33  31  92 E3        29.71F VSB 1/2
GALESBURG*     LGT RAIN  33  32  99 E7        29.75F WCI  26
MACOMB*        LGT SNOW  32  32 100 E7        29.75F VSB 3/4 WCI  26
JACKSONVILLE*  MIX PCPN  35  33  94 CALM      29.72F
PITTSFIELD*    LGT SNOW  34  33  95 CALM      29.72S VSB 3/4
$$

ILZ028>032-037-038-041>044-048-051>054-059>061-011700-
CENTRAL ILLINOIS

CITY           SKY/WX    TMP DP  RH WIND       PRES   REMARKS
PONTIAC        LGT SNOW  34  33  99 E12       29.80F VSB 1   WCI  25
BLOOMINGTON    LGT SNOW  33  32  96 SE9       29.75F FOG     WCI  25
DECATUR        CLOUDY    34  32  92 SE12      29.73F FOG     WCI  25
PEORIA         LGT SNOW  34  32  92 E8        29.76F FOG     WCI  27
LACON*         LGT SNOW  32  31  97 E8        29.78F WCI  25
LINCOLN*       LGT SNOW  34  33  97 E5        29.75F WCI  30
SPRINGFIELD    CLOUDY    34  32  92 SE8       29.73F FOG     WCI  27
TAYLORVILLE    CLOUDY    32  32 100 SE10G17   29.72F FOG     WCI  24
$$

ILZ033-039-045-046-055>057-062-063-011700-
EAST-CENTRAL ILLINOIS

CITY           SKY/WX    TMP DP  RH WIND       PRES   REMARKS
CHAMPAIGN      LGT SNOW  33  32  96 SE13      29.76F VSB 1   WCI  24
DANVILLE*      SNOW      32  31  99 SE8       29.77F VSB 1/4 WCI  25
RANTOUL*       SNOW      34  33  96 E9        29.77F VSB 1/2 WCI  26
MATTOON        CLOUDY    34  31  88 SE14      29.75F WCI  25
PARIS*         LGT SNOW  33  33  99 SE9       29.79F WCI  25
$$

ILZ079-100>102-011700-
SOUTHWEST ILLINOIS

CITY           SKY/WX    TMP DP  RH WIND       PRES   REMARKS
ALTON          DRIZZLE   36  36 100 SE10      29.72F WCI  28
BELLEVILLE     CLOUDY    37  37 100 SE6       29.72F WCI  32
CAHOKIA*       CLOUDY    38  37  97 SE7       29.72F FOG     WCI  33
SPARTA*        CLOUDY    38  37  99 SE3       29.75F FOG
$$

ILZ064>066-069>071-074>076-080>082-084>086-088>090-092>094-011700-
SOUTH-CENTRAL ILLINOIS

CITY           SKY/WX    TMP DP  RH WIND       PRES   REMARKS
CARBONDALE     CLOUDY    42  40  92 S8        29.76F FOG
CAIRO*         DRIZZLE   46  46 100 S5        29.78F
EFFINGHAM*     DRIZZLE   34  32  91 E9        29.78F WCI  27
MARION         LGT RAIN  43  41  93 S8        29.78F
MT. VERNON     CLOUDY    37  32  81 CALM      29.77F
CENTRALIA*     LGT RAIN  36  34  93 SE3       29.75F
SALEM*         DRIZZLE   37  36  93 SE5       29.76F WCI  34
METROPOLIS*    LGT RAIN  45  45 100 S3        29.79F
$$

ILZ067-068-072-073-078-083-087-091-011700-
SOUTHEAST ILLINOIS

CITY           SKY/WX    TMP DP  RH WIND       PRES   REMARKS
LAWRENCEVILLE  LGT RAIN  37  35  92 E5        29.81F FOG     WCI  33
FLORA*         DRIZZLE   36  35  99 SE7       29.78F WCI  30
FAIRFIELD*     RAIN      37  37  99 CALM      29.77F
HARRISBURG*    RAIN      42  42 100 S3        29.80F
ROBINSON*      LGT RAIN  35  34  96 SE6       29.82F WCI  30
CARMI*         RAIN      41  40  97 SE5       29.80F
$$

ABBREVIATIONS USED IN REMARKS
   TC - TEMPERATURE IN CELSIUS
  WCI - WIND CHILL INDEX
   HX - HEAT INDEX
  VSB - VISIBILITY
$$



USA.gov is the U.S. government's official web portal to all federal, state and local government web resources and services.